This is the latest recevied weather packets stored in our database for station/object NT9G. If no packets are shown the sender has not sent any weather packets the latest 10 day(s).
| Time | Temp. | Humidity | Pressure | Rain* | Wind** | Luminosity | Snow |
|---|---|---|---|---|---|---|---|
| 1777895947 | 11.11° C | 89% | 1006.3 hPa | 0 mm | - | - | - |
| 1777895647 | 10.56° C | 86% | 1006.3 hPa | 0 mm | - | - | - |
| 1777895346 | 10° C | 85% | 1006.2 hPa | 0 mm | - | - | - |
| 1777895045 | 9.44° C | 84% | 1006.3 hPa | 0 mm | - | - | - |
| 1777894745 | 8.89° C | 83% | 1006.1 hPa | 0 mm | - | - | - |
| 1777894445 | 8.89° C | 82% | 1006.1 hPa | 0 mm | - | - | - |
| 1777894145 | 8.89° C | 82% | 1006.1 hPa | 0 mm | - | - | - |
| 1777893844 | 8.89° C | 83% | 1006 hPa | 0 mm | - | - | - |
| 1777893542 | 8.89° C | 84% | 1006.1 hPa | 0 mm | - | - | - |
| 1777893242 | 8.89° C | 84% | 1006 hPa | 0 mm | - | - | - |
| 1777892941 | 8.89° C | 83% | 1005.9 hPa | 0 mm | - | - | - |
| 1777892641 | 8.89° C | 81% | 1006 hPa | 0 mm | - | - | - |
| 1777892341 | 8.89° C | 80% | 1006 hPa | 0 mm | - | - | - |
| 1777892040 | 8.33° C | 79% | 1006.1 hPa | 0 mm | - | - | - |
| 1777891439 | 8.33° C | 77% | 1006.1 hPa | 0 mm | - | - | - |
| 1777891139 | 8.33° C | 77% | 1006.2 hPa | 0 mm | - | - | - |
| 1777890839 | 8.33° C | 78% | 1006.3 hPa | 0 mm | - | - | - |
| 1777890538 | 8.33° C | 79% | 1006.3 hPa | 0 mm | - | - | - |
| 1777889937 | 8.89° C | 81% | 1006.3 hPa | 0 mm | - | - | - |
| 1777889637 | 8.89° C | 81% | 1006.3 hPa | 0 mm | - | - | - |
| 1777889336 | 8.89° C | 81% | 1006.4 hPa | 0 mm | - | - | - |
| 1777889035 | 8.89° C | 82% | 1006.4 hPa | 0 mm | - | - | - |
| 1777888734 | 8.89° C | 82% | 1006.5 hPa | 0 mm | - | - | - |
| 1777888434 | 8.89° C | 82% | 1006.5 hPa | 0 mm | - | - | - |
| 1777888132 | 9.44° C | 83% | 1006.4 hPa | 0 mm | - | - | - |
* Rain since midnight (hover to see other rain measurements)
** Current wind speed in m/s (hover to see current wind gust speed)